Location: Bismarck
(46.7731°N, 100.8200°W)
Time: 00:08:00
(UTC-05:00)

ISS - All Passes

Search period start: 25 June 2016 00:00
Search period end: 05 July 2016 00:00
Orbit: 402 x 403 km, 51.6° (Epoch: 24 June)

Date Brightness Start Highest point End Pass type
(mag) Time Alt. Az. Time Alt. Az. Time Alt. Az.
25 Jun - 11:46:01 10° SW 11:49:14 58° SSE 11:52:28 10° ENE daylight
25 Jun - 13:22:40 10° W 13:25:48 40° NNW 13:28:55 10° ENE daylight
25 Jun - 14:59:39 10° WNW 15:02:43 35° N 15:05:46 10° ENE daylight
25 Jun - 16:36:07 10° WNW 16:39:24 86° SSW 16:42:40 10° ESE daylight
25 Jun - 18:13:26 10° W 18:15:26 15° SW 18:17:25 10° S daylight
26 Jun - 10:53:36 10° SSW 10:56:35 34° SE 10:59:35 10° ENE daylight
26 Jun - 12:29:44 10° W 12:32:56 52° NNW 12:36:10 10° ENE daylight
26 Jun - 14:06:47 10° WNW 14:09:48 33° N 14:12:50 10° ENE daylight
26 Jun - 15:43:22 10° WNW 15:46:38 63° NNE 15:49:52 10° ESE daylight
26 Jun - 17:20:06 10° W 17:22:53 26° SW 17:25:40 10° SSE daylight
27 Jun - 10:01:32 10° S 10:04:00 20° SE 10:06:28 10° E daylight
27 Jun - 11:36:52 10° WSW 11:40:09 76° NNW 11:43:26 10° ENE daylight
27 Jun - 13:13:52 10° WNW 13:16:54 34° N 13:19:56 10° ENE daylight
27 Jun - 14:50:37 10° WNW 14:53:48 45° NNE 14:56:58 10° E daylight
27 Jun - 16:27:07 10° WNW 16:30:16 44° SW 16:33:23 10° SE daylight
28 Jun - 09:10:19 10° SSE 09:11:28 11° SE 09:12:38 10° ESE daylight
28 Jun - 10:44:08 10° SW 10:47:23 68° SSE 10:50:39 10° ENE daylight
28 Jun - 12:20:54 10° W 12:23:59 38° N 12:27:05 10° ENE daylight
28 Jun - 13:57:49 10° WNW 14:00:55 37° N 14:03:59 10° E daylight
28 Jun - 15:34:17 10° WNW 15:37:33 75° SSW 15:40:49 10° ESE daylight
28 Jun - 17:11:57 10° WSW 17:13:31 13° SW 17:15:04 10° SSW daylight
29 Jun - 09:51:37 10° SW 09:54:41 39° SE 09:57:46 10° ENE daylight
29 Jun - 11:27:55 10° W 11:31:07 48° NNW 11:34:18 10° ENE daylight
29 Jun - 13:04:57 10° WNW 13:07:59 33° N 13:11:01 10° ENE daylight
29 Jun - 14:41:30 10° WNW 14:44:46 70° NNE 14:48:02 10° ESE daylight
29 Jun - 16:18:21 10° W 16:20:58 22° SW 16:23:34 10° SSE daylight
30 Jun - 08:59:23 10° SSW 09:02:03 23° SE 09:04:43 10° E daylight
30 Jun - 10:35:00 10° WSW 10:38:15 68° NNW 10:41:32 10° ENE daylight
30 Jun - 12:12:02 10° WNW 12:15:03 33° N 12:18:04 10° ENE daylight
30 Jun - 13:48:43 10° WNW 13:51:55 49° NNE 13:55:07 10° E daylight
30 Jun - 15:25:16 10° WNW 15:28:19 37° SW 15:31:23 10° SSE daylight
01 Jul - 08:07:45 10° SSE 08:09:28 14° SE 08:11:11 10° ESE daylight
01 Jul - 09:42:11 10° WSW 09:45:27 79° SSE 09:48:44 10° ENE daylight
01 Jul - 11:19:02 10° WNW 11:22:07 36° N 11:25:11 10° ENE daylight
01 Jul - 12:55:55 10° WNW 12:59:02 39° NNE 13:02:07 10° E daylight
01 Jul - 14:32:22 10° WNW 14:35:37 65° SSW 14:38:50 10° SE daylight
01 Jul - 16:10:38 10° WSW 16:11:30 11° SW 16:12:21 10° SSW daylight
02 Jul - 08:49:34 10° SW 08:52:42 46° SSE 08:55:52 10° ENE daylight
02 Jul - 10:26:01 10° W 10:29:11 44° NNW 10:32:21 10° ENE daylight
02 Jul - 12:03:02 10° WNW 12:06:04 34° N 12:09:06 10° ENE daylight
02 Jul - 13:39:32 10° WNW 13:42:49 79° NNE 13:46:05 10° ESE daylight
02 Jul - 15:16:33 10° W 15:18:56 19° SW 15:21:19 10° S daylight
03 Jul - 07:57:11 10° SSW 08:00:01 27° SE 08:02:50 10° E daylight
03 Jul - 09:33:02 10° WSW 09:36:17 60° NNW 09:39:32 10° ENE daylight
03 Jul - 11:10:06 10° WNW 11:13:06 33° N 11:16:07 10° ENE daylight
03 Jul - 12:46:44 10° WNW 12:49:57 54° NNE 12:53:11 10° E daylight
03 Jul - 14:23:20 10° WNW 14:26:18 32° SW 14:29:15 10° SSE daylight
04 Jul - 07:05:18 10° S 07:07:23 16° SE 07:09:28 10° E daylight
04 Jul - 08:40:10 10° WSW 08:43:26 89° S 08:46:43 10° ENE daylight
04 Jul - 10:17:05 10° WNW 10:20:08 35° N 10:23:11 10° ENE daylight
04 Jul - 11:53:54 10° WNW 11:57:02 41° NNE 12:00:10 10° E daylight
04 Jul - 13:30:22 10° WNW 13:33:35 55° SSW 13:36:47 10° SE daylight
